| time (UTC) | temp C | wind direction | speed KPH | gust KPH | rain 1hr cm | rain 24hr cm | rain mn cm | humidity % | barometer mb |
| 20260509124325 | 9 | 175 | 8.0 | 14.5 | 0.05 | 0.28 | 0.10 | 50 | 991.1 |
| 20260509123324 | 9 | 190 | 8.0 | 14.5 | 0.05 | 0.30 | 0.10 | 51 | 991.5 |
| 20260509122326 | 9 | 184 | 4.8 | 9.7 | 0.05 | 0.30 | 0.08 | 49 | 991.5 |
| 20260509121326 | 9 | 198 | 6.4 | 11.3 | 0.05 | 0.33 | 0.08 | 49 | 991.9 |
| 20260509115426 | 8 | 191 | 9.7 | 16.1 | 0.08 | 0.33 | 0.05 | 50 | 991.5 |
| 20260509114525 | 8 | 196 | 6.4 | 11.3 | 0.05 | 0.30 | 0.05 | 50 | 991.9 |
| 20260509111626 | 8 | 202 | 6.4 | 11.3 | 0.03 | 0.28 | 0.03 | 51 | 991.9 |
| 20260509110625 | 8 | 202 | 3.2 | 6.4 | 0.00 | 0.25 | 0.00 | 51 | 991.9 |
| 20260509104625 | 8 | 192 | 4.8 | 9.7 | 0.00 | 0.25 | 0.00 | 50 | 991.5 |
| 20260509103627 | 8 | 194 | 8.0 | 11.3 | 0.00 | 0.25 | 0.00 | 50 | 991.5 |
| 20260509102724 | 9 | 174 | 9.7 | 19.3 | 0.00 | 0.25 | 0.00 | 50 | 991.5 |
| 20260509101726 | 9 | 172 | 9.7 | 16.1 | 0.00 | 0.25 | 0.00 | 49 | 991.1 |
| 20260509100824 | 8 | 189 | 9.7 | 14.5 | 0.00 | 0.25 | 0.00 | 48 | 991.1 |
| 20260509095923 | 8 | 186 | 4.8 | 12.9 | 0.00 | 0.25 | 0.00 | 49 | 991.1 |
| 20260509093926 | 8 | 183 | 3.2 | 8.0 | 0.00 | 0.25 | 0.00 | 48 | 991.1 |
| 20260509092926 | 8 | 199 | 4.8 | 9.7 | 0.00 | 0.25 | 0.00 | 48 | 991.1 |
| 20260509092025 | 8 | 201 | 3.2 | 11.3 | 0.00 | 0.25 | 0.00 | 49 | 991.1 |
| 20260509090124 | 8 | 202 | 1.6 | 3.2 | 0.00 | 0.25 | 0.00 | 49 | 991.1 |
| 20260509085126 | 7 | 207 | 3.2 | 9.7 | 0.00 | 0.25 | 0.00 | 48 | 991.1 |
| 20260509084125 | 7 | 202 | 4.8 | 6.4 | 0.00 | 0.25 | 0.00 | 48 | 991.1 |
| 20260509082225 | 7 | 202 | 4.8 | 8.0 | 0.00 | 0.25 | 0.00 | 42 | 991.5 |
| 20260509081225 | 7 | 201 | 4.8 | 8.0 | 0.00 | 0.25 | 0.00 | 42 | 991.5 |
| 20260509075226 | 7 | 193 | 6.4 | 9.7 | 0.00 | 0.25 | 0.00 | 42 | 991.5 |
| 20260509074226 | 7 | 202 | 3.2 | 6.4 | 0.00 | 0.25 | 0.00 | 42 | 991.5 |
| 20260509073224 | 7 | 202 | 1.6 | 3.2 | 0.00 | 0.25 | 0.00 | 42 | 991.9 |
| 20260509072225 | 7 | 202 | 1.6 | 3.2 | 0.00 | 0.25 | 0.00 | 42 | 991.9 |
| 20260509071324 | 7 | 180 | 1.6 | 3.2 | 0.00 | 0.25 | 0.00 | 47 | 991.5 |
| 20260509070325 | 7 | 180 | 1.6 | 3.2 | 0.00 | 0.25 | 0.00 | 48 | 992.2 |
| 20260509065423 | 6 | 171 | 3.2 | 6.4 | 0.00 | 0.25 | 0.00 | 48 | 991.9 |
| 20260509064426 | 6 | 202 | 1.6 | 3.2 | 0.00 | 0.25 | 0.00 | 49 | 991.9 |
| 20260509063426 | 6 | 202 | 1.6 | 3.2 | 0.00 | 0.25 | 0.00 | 48 | 992.2 |
| 20260509062426 | 5 | 180 | 0.0 | 0.0 | 0.00 | 0.25 | 0.00 | 49 | 992.2 |
| 20260509061523 | 5 | 180 | 0.0 | 0.0 | 0.00 | 0.25 | 0.00 | 49 | 992.2 |
| 20260509060525 | 5 | 112 | 0.0 | 0.0 | 0.00 | 0.25 | 0.00 | 50 | 992.6 |
| 20260509055525 | 5 | 112 | 0.0 | 0.0 | 0.00 | 0.25 | 0.00 | 51 | 992.6 |
| 20260509053624 | 5 | 112 | 0.0 | 0.0 | 0.00 | 0.25 | 0.00 | 50 | 992.8 |
| 20260509052627 | 5 | 112 | 0.0 | 0.0 | 0.00 | 0.25 | 0.00 | 49 | 992.9 |
| 20260509051625 | 5 | 112 | 0.0 | 0.0 | 0.00 | 0.25 | 0.00 | 49 | 992.8 |
| 20260509045625 | 4 | 112 | 0.0 | 0.0 | 0.00 | 0.25 | 0.00 | 49 | 992.9 |
| 20260509044626 | 3 | 112 | 0.0 | 0.0 | 0.00 | 0.25 | 0.00 | 50 | 992.9 |
| 20260509043724 | 3 | 112 | 0.0 | 0.0 | 0.00 | 0.25 | 0.00 | 42 | 992.9 |
| 20260509042725 | 3 | 112 | 0.0 | 0.0 | 0.00 | 0.25 | 0.00 | 43 | 992.9 |
| 20260509041824 | 3 | 112 | 0.0 | 0.0 | 0.00 | 0.25 | 0.00 | 51 | 992.9 |
| 20260509040825 | 3 | 112 | 0.0 | 0.0 | 0.00 | 0.25 | 0.00 | 50 | 992.9 |
| 20260509035014 | 3 | 247 | 0.0 | 3.2 | 0.00 | 0.25 | 0.25 | 51 | 993.2 |
| 20260509034113 | 3 | 247 | 1.6 | 3.2 | 0.00 | 0.25 | 0.25 | 48 | 993.2 |
| 20260509033114 | 3 | 247 | 1.6 | 3.2 | 0.00 | 0.25 | 0.25 | 48 | 993.2 |
| 20260509031214 | 4 | 247 | 1.6 | 3.2 | 0.00 | 0.25 | 0.25 | 43 | 993.2 |
| 20260509025316 | 4 | 247 | 0.0 | 0.0 | 0.00 | 0.25 | 0.25 | 51 | 993.2 |
| 20260509024317 | 5 | 247 | 0.0 | 0.0 | 0.00 | 0.25 | 0.25 | 52 | 993.6 |
| 20260509023414 | 5 | 247 | 0.0 | 0.0 | 0.00 | 0.25 | 0.25 | 51 | 993.6 |
| 20260509022414 | 5 | 247 | 0.0 | 0.0 | 0.00 | 0.25 | 0.25 | 52 | 993.9 |
| 20260509020516 | 5 | 247 | 0.0 | 0.0 | 0.00 | 0.25 | 0.25 | 51 | 993.9 |
| 20260509014615 | 6 | 247 | 1.6 | 3.2 | 0.00 | 0.25 | 0.25 | 48 | 993.9 |
| 20260509013617 | 6 | 247 | 0.0 | 1.6 | 0.00 | 0.25 | 0.25 | 48 | 993.9 |
| 20260509011615 | 6 | 247 | 1.6 | 3.2 | 0.00 | 0.25 | 0.25 | 48 | 993.6 |
| 20260509010617 | 6 | 247 | 1.6 | 3.2 | 0.00 | 0.25 | 0.25 | 48 | 993.6 |
| 20260509003615 | 7 | 247 | 1.6 | 3.2 | 0.00 | 0.25 | 0.25 | 47 | 993.2 |
| 20260509002615 | 7 | 247 | 0.0 | 1.6 | 0.00 | 0.25 | 0.25 | 47 | 993.6 |
| 20260509001615 | 8 | 247 | 1.6 | 3.2 | 0.00 | 0.25 | 0.25 | 44 | 993.6 |
| 20260508235618 | 10 | 112 | 0.0 | 0.0 | 0.00 | 0.25 | 0.25 | 42 | 993.6 |
| 20260508234716 | 11 | 112 | 1.6 | 3.2 | 0.00 | 0.25 | 0.25 | 43 | 993.6 |
| 20260508232714 | 12 | 80 | 1.6 | 3.2 | 0.00 | 0.25 | 0.25 | 43 | 993.6 |
| 20260508231718 | 13 | 67 | 1.6 | 3.2 | 0.00 | 0.25 | 0.25 | 44 | 993.2 |
| 20260508230815 | 13 | 22 | 0.0 | 0.0 | 0.00 | 0.25 | 0.25 | 53 | 993.2 |
| 20260508225817 | 13 | 33 | 0.0 | 0.0 | 0.00 | 0.25 | 0.25 | 50 | 993.2 |
| 20260508224913 | 12 | 22 | 0.0 | 0.0 | 0.00 | 0.25 | 0.25 | 46 | 993.2 |
| 20260508222914 | 12 | 22 | 0.0 | 0.0 | 0.00 | 0.25 | 0.25 | 47 | 993.6 |
| 20260508221915 | 12 | 22 | 0.0 | 0.0 | 0.00 | 0.25 | 0.25 | 45 | 993.2 |
| 20260508221015 | 12 | 45 | 0.0 | 0.0 | 0.00 | 0.25 | 0.25 | 45 | 993.2 |
| 20260508220017 | 12 | 51 | 1.6 | 6.4 | 0.00 | 0.25 | 0.25 | 45 | 993.2 |
| 20260508215016 | 12 | 67 | 1.6 | 3.2 | 0.00 | 0.25 | 0.25 | 45 | 993.2 |
| 20260508214115 | 12 | 68 | 1.6 | 6.4 | 0.00 | 0.25 | 0.25 | 43 | 993.6 |
| 20260508213215 | 12 | 38 | 1.6 | 9.7 | 0.00 | 0.25 | 0.25 | 44 | 993.6 |
| 20260508212214 | 12 | 53 | 3.2 | 6.4 | 0.00 | 0.25 | 0.25 | 44 | 993.6 |
| 20260508205216 | 12 | 16 | 0.0 | 0.0 | 0.00 | 0.25 | 0.25 | 43 | 993.9 |
| 20260508204216 | 12 | 45 | 1.6 | 6.4 | 0.00 | 0.25 | 0.25 | 44 | 993.9 |
| 20260508203314 | 12 | 17 | 0.0 | 0.0 | 0.00 | 0.25 | 0.25 | 54 | 993.9 |
| 20260508202316 | 12 | 32 | 0.0 | 9.7 | 0.00 | 0.25 | 0.25 | 54 | 993.9 |
| 20260508201316 | 13 | 40 | 0.0 | 4.8 | 0.00 | 0.25 | 0.25 | 54 | 994.3 |
| 20260508200316 | 12 | 81 | 3.2 | 9.7 | 0.00 | 0.25 | 0.25 | 55 | 994.3 |
| 20260508195315 | 12 | 36 | 0.0 | 3.2 | 0.00 | 0.25 | 0.25 | 54 | 994.3 |
| 20260508194315 | 12 | 42 | 1.6 | 11.3 | 0.00 | 0.25 | 0.25 | 54 | 994.3 |
| 20260508193315 | 12 | 74 | 3.2 | 9.7 | 0.00 | 0.25 | 0.25 | 53 | 994.6 |
| 20260508192315 | 12 | 87 | 3.2 | 8.0 | 0.00 | 0.25 | 0.25 | 54 | 994.6 |
| 20260508191316 | 11 | 92 | 6.4 | 9.7 | 0.00 | 0.25 | 0.25 | 53 | 994.6 |
| 20260508190315 | 11 | 96 | 6.4 | 11.3 | 0.00 | 0.25 | 0.25 | 53 | 994.6 |
| 20260508185313 | 11 | 106 | 4.8 | 9.7 | 0.00 | 0.25 | 0.25 | 54 | 994.6 |
| 20260508184314 | 12 | 77 | 3.2 | 6.4 | 0.00 | 0.25 | 0.25 | 54 | 994.6 |
| 20260508182315 | 11 | 250 | 3.2 | 6.4 | 0.00 | 0.25 | 0.25 | 53 | 994.9 |
| 20260508181413 | 11 | 91 | 4.8 | 9.7 | 0.00 | 0.25 | 0.25 | 54 | 994.9 |
| 20260508180414 | 11 | 7 | 1.6 | 8.0 | 0.00 | 0.25 | 0.25 | 53 | 994.9 |
| 20260508175416 | 11 | 284 | 0.0 | 3.2 | 0.00 | 0.25 | 0.25 | 54 | 995.3 |
| 20260508174416 | 10 | 225 | 1.6 | 4.8 | 0.00 | 0.25 | 0.25 | 54 | 995.3 |
| 20260508172414 | 8 | 85 | 6.4 | 9.7 | 0.00 | 0.25 | 0.25 | 52 | 995.3 |
| 20260508171414 | 8 | 157 | 3.2 | 8.0 | 0.00 | 0.25 | 0.25 | 53 | 995.3 |
| 20260508165418 | 8 | 122 | 6.4 | 11.3 | 0.00 | 0.25 | 0.25 | 52 | 995.3 |
| 20260508164414 | 7 | 101 | 6.4 | 9.7 | 0.00 | 0.25 | 0.25 | 53 | 995.7 |
| 20260508163416 | 7 | 114 | 3.2 | 6.4 | 0.00 | 0.25 | 0.25 | 52 | 996.0 |
| 20260508161516 | 8 | 112 | 1.6 | 4.8 | 0.00 | 0.25 | 0.25 | 53 | 995.7 |
| 20260508160517 | 8 | 180 | 1.6 | 4.8 | 0.00 | 0.25 | 0.25 | 52 | 995.7 |
| 20260508155516 | 7 | 90 | 1.6 | 3.2 | 0.00 | 0.25 | 0.25 | 53 | 995.3 |
| 20260508154515 | 6 | 143 | 4.8 | 9.7 | 0.00 | 0.25 | 0.25 | 51 | 995.3 |
| 20260508153516 | 6 | 175 | 3.2 | 8.0 | 0.00 | 0.25 | 0.25 | 52 | 995.7 |
| 20260508152516 | 6 | 151 | 3.2 | 4.8 | 0.00 | 0.25 | 0.25 | 52 | 995.3 |
| 20260508151515 | 6 | 202 | 1.6 | 6.4 | 0.00 | 0.25 | 0.25 | 52 | 995.3 |
| 20260508150515 | 6 | 115 | 3.2 | 6.4 | 0.00 | 0.25 | 0.25 | 52 | 995.3 |
| 20260508145515 | 6 | 241 | 0.0 | 0.0 | 0.03 | 0.25 | 0.25 | 52 | 995.3 |
| 20260508144614 | 6 | 341 | 0.0 | 6.4 | 0.05 | 0.25 | 0.25 | 52 | 995.3 |
| 20260508143617 | 6 | 344 | 0.0 | 3.2 | 0.05 | 0.25 | 0.25 | 42 | 995.3 |
| 20260508142616 | 5 | 157 | 3.2 | 6.4 | 0.08 | 0.25 | 0.25 | 42 | 994.9 |
| 20260508141713 | 5 | 157 | 1.6 | 3.2 | 0.10 | 0.25 | 0.25 | 50 | 994.9 |
| 20260508135716 | 3 | 247 | 1.6 | 3.2 | 0.13 | 0.23 | 0.23 | 50 | 995.3 |
| 20260508134715 | 3 | 247 | 4.8 | 8.0 | 0.13 | 0.20 | 0.20 | 50 | 994.9 |
| 20260508133814 | 3 | 247 | 3.2 | 6.4 | 0.15 | 0.20 | 0.20 | 51 | 994.9 |
| 20260508132816 | 3 | 247 | 1.6 | 3.2 | 0.13 | 0.18 | 0.18 | 52 | 994.9 |
| 20260508131815 | 3 | 247 | 4.8 | 9.7 | 0.15 | 0.15 | 0.15 | 52 | 994.9 |
| 20260508130814 | 3 | 247 | 6.4 | 9.7 | 0.15 | 0.15 | 0.13 | 51 | 994.9 |
| 20260508125816 | 3 | 247 | 9.7 | 16.1 | 0.10 | 0.10 | 0.10 | 51 | 994.9 |
| 20260508124815 | 3 | 254 | 4.8 | 11.3 | 0.10 | 0.10 | 0.08 | 51 | 994.6 |